Regional Weather Roundup
Issued by NWS Sterling, VA

Home | Current Version | Previous Version | Graphics & Text | Print | Product List | Glossary On
Versions: 1 2 3 4 5 6 7 8 9 10 11 12 13 14 15 16 17 18 19 20 21 22 23 24 25 26 27 28 29 30 31 32 33 34 35 36 37 38 39 40 41 42 43 44 45 46 47 48 49 50
000
ASUS41 KLWX 120310
RWRLWX

REGIONAL WEATHER ROUNDUP
NATIONAL WEATHER SERVICE BALTIMORE MD/WASHINGTON DC
1000 PM EST MON DEC 11 2017

Note: "FAIR" indicates few or no clouds below 12,000 feet
with no significant weather and/or obstructions to visibility.
 TC=TEMPERATURE CELSIUS

 * =Non NWS site. Station does not report precipitation (e.g. rain,
    snow, etc.), thunder, or fog.

DCZ001-MDZ009-015-VAZ040>042-051-053>054-120400-
WASHINGTON METRO

CITY           SKY/WX    TMP DP  RH WIND       PRES   REMARKS
WASHINGTON NAT MOCLDY    41  32  70 S14       29.93F
DULLES         MOCLDY    40  30  67 S8        29.89F
ANDREWS AFB    PTCLDY    37  29  73 SE9       29.91F
FT BELVOIR     MOCLDY    39  31  73 S5        29.92F
QUANTICO       CLEAR     42  33  70 S13       29.94F
COLLEGE PARK*  MOCLDY    39  29  67 S5        29.92F
LEESBURG*      PTCLDY    41  32  70 S8        29.89F
MANASSAS*      PTCLDY    41  29  62 S12       29.90F
GAITHERSBURG*  CLOUDY    37  28  70 SE10      29.89F

$$

MDZ006>007-011-014-120400-
BALTIMORE METRO

CITY           SKY/WX    TMP DP  RH WIND       PRES   REMARKS
BWI AIRPORT    CLOUDY    40  31  70 SE8       29.91F
MD SCIENCE CTR   N/A     42  32  67 MISG      29.92F
ANNAPOLIS      PTCLDY    43  33  68 SE13      29.93F
FORT MEADE*    CLOUDY    37  30  75 S5        29.94F

$$

MDZ012-015-019>023-120400-
MARYLAND EASTERN SHORE

CITY           SKY/WX    TMP DP  RH WIND       PRES   REMARKS
OCEAN CITY     CLEAR     31  29  92 CALM      30.00S
SALISBURY      CLEAR     28  26  92 CALM      29.98F
BAY BRIDGE AP* CLOUDY    41  30  65 SE9       29.95F
CAMBRIDGE*     MOCLDY    32  28  86 SE6       29.97F
EASTON*        PTCLDY    37  28  70 S6        29.99F

$$

MDZ017>025-120400-
SOUTHERN MARYLAND

CITY           SKY/WX    TMP DP  RH WIND       PRES   REMARKS
PATUXENT RIVER PTCLDY    40  32  73 S8        29.95F
ST INIGOES     CLEAR     43  34  70 S12       29.95F
LEONARDTOWN*   CLEAR     36  32  87 SE3       29.96F

$$

MDZ003>005-120400-
NORTH CENTRAL MARYLAND

CITY           SKY/WX    TMP DP  RH WIND       PRES   REMARKS
FREDERICK*     CLOUDY    37  27  65 S5        29.91F
HAGERSTOWN APT PTCLDY    42  27  55 S14       29.83F
WESTMINSTER*   PTCLDY    37  30  75 SE9       29.87F

$$

MDZ501>502-120400-
WESTERN MARYLAND

CITY           SKY/WX    TMP DP  RH WIND       PRES   REMARKS
OAKLAND*       CLOUDY    32  19  59 SE9       29.68F WCI  24
CUMBERLAND*    CLOUDY    39  25  56 NW3       29.83F

$$

VAZ025>031-120400-
SHENANDOAH VALLEY

CITY           SKY/WX    TMP DP  RH WIND       PRES   REMARKS
WINCHESTER*    MOCLDY    41  27  56 S7        29.82F
FRONT ROYAL*   FAIR      41  27  56 MISG      29.82F
LURAY*         CLOUDY    39  30  70 S3        29.83F
NEW MARKET*    PTCLDY    37  26  64 SW5       29.81F
STAUNTON*      PTCLDY    33  26  75 SW3       29.85F
WAYNESBORO*    PTCLDY    39  27  63 CALM      29.83F

$$

WVZ021-048>050-054>055-120400-
EASTERN WEST VIRGINIA PANHANDLE

CITY           SKY/WX    TMP DP  RH WIND       PRES   REMARKS
MARTINSBURG    PTCLDY    40  24  53 S5        29.82F
PETERSBURG*    PTCLDY    32  24  73 CALM      29.77F

$$

VAZ036>039-050-120400-
CENTRAL FOOTHILLS

CITY           SKY/WX    TMP DP  RH WIND       PRES   REMARKS
CHARLOTTESVILL PTCLDY    38  27  64 S3        29.87F
CULPEPER*      FAIR      32  26  78 CALM      29.90F
ORANGE*        PTCLDY    32  27  80 CALM      29.90S
GORDONSVILLE*  PTCLDY    29  27  90 CALM      29.89F
WARRENTON*     PTCLDY    42  25  50 S7        29.88F

$$

VAZ055>057-120400-
NORTH AND CENTRAL PIEDMONT

CITY           SKY/WX    TMP DP  RH WIND       PRES   REMARKS
FREDERICKSBRG* CLEAR     36  30  79 SE6       29.92F
STAFFORD*      CLEAR     33  27  77 S3        29.96F

$$

NCZ024-NYZ072-PAZ021-071-VAZ022-071-120400-
OTHER REGIONAL OBSERVATIONS

CITY           SKY/WX    TMP DP  RH WIND       PRES   REMARKS
NEW YORK CITY  CLOUDY    39  22  50 VRB3      30.00F
PHILADELPHIA   CLOUDY    36  24  62 SE7       29.98F
PITTSBURGH     CLOUDY    36  22  56 CALM      29.71F
ROANOKE        PTCLDY    40  28  62 CALM      29.87F
RICHMOND       PTCLDY    34  29  82 SE6       29.94F
RALEIGH        PTCLDY    41  29  62 S8        29.97F

$$

ANZ530>537-120400-
MARINE OBSERVATIONS

STATION/POSITION TIME  TEMP    WIND        PRES
                       AIR SEA DIR/SP/G
                 (UTC) (F)     (DEG/KT/KT) (MB)
THOMAS PT LIGHT  0300   43 48  160/ 20/ 22   N/A
BALT KEY BRIDGE  0242   42     150/ 14/ 16 1013.2F
COVE POINT       0242   44     190/ 15/ 18 1015.0F
LEWISETTA        0242   41 44  180/  5/  7 1014.5F
SOLOMONS ISLAND  0242   42 48  160/  9/ 10 1014.0F
PINEY POINT      0242          190/ 15/ 18   N/A

$$




USA.gov is the U.S. government's official web portal to all federal, state and local government web resources and services.